This is the latest recevied weather packets stored in our database for station/object WA6ODQ-13. If no packets are shown the sender has not sent any weather packets the latest 10 day(s).
| Time | Temp. | Humidity | Pressure | Rain* | Wind** | Luminosity | Snow |
|---|---|---|---|---|---|---|---|
| 1788314814 | 20° C | 63% | 1012.9 hPa | 0 mm | - | 22 W/m² | - |
| 1788314509 | 20.56° C | 62% | 1012.9 hPa | 0 mm | - | 33 W/m² | - |
| 1788314205 | 20.56° C | 61% | 1013 hPa | 0 mm | - | 53 W/m² | - |
| 1788313909 | 20.56° C | 60% | 1013.1 hPa | 0 mm | - | 50 W/m² | - |
| 1788313596 | 21.11° C | 60% | 1013 hPa | 0 mm | - | 63 W/m² | - |
| 1788313292 | 21.11° C | 59% | 1013.1 hPa | 0 mm | - | 64 W/m² | - |
| 1788312991 | 21.11° C | 58% | 1013.1 hPa | 0 mm | - | 80 W/m² | - |
| 1788312687 | 20.56° C | 59% | 1013.1 hPa | 0 mm | - | 69 W/m² | - |
| 1788312382 | 20.56° C | 60% | 1013 hPa | 0 mm | - | 41 W/m² | - |
| 1788312078 | 20.56° C | 60% | 1013.1 hPa | 0 mm | - | 32 W/m² | - |
| 1788311773 | 20.56° C | 59% | 1012.9 hPa | 0 mm | - | 29 W/m² | - |
| 1788311473 | 21.67° C | 57% | 1013 hPa | 0 mm | - | 47 W/m² | - |
| 1788311167 | 21.67° C | 55% | 1013 hPa | 0 mm | - | 120 W/m² | - |
| 1788310863 | 21.67° C | 56% | 1012.9 hPa | 0 mm | - | 132 W/m² | - |
| 1788310560 | 22.78° C | 55% | 1012.8 hPa | 0 mm | - | 143 W/m² | - |
| 1788310257 | 22.78° C | 54% | 1012.8 hPa | 0 mm | - | 155 W/m² | - |
| 1788309956 | 22.22° C | 55% | 1012.9 hPa | 0 mm | - | 168 W/m² | - |
| 1788309651 | 22.22° C | 54% | 1012.9 hPa | 0 mm | - | 180 W/m² | - |
| 1788309347 | 22.22° C | 53% | 1013 hPa | 0 mm | - | 195 W/m² | - |
| 1788309042 | 22.22° C | 54% | 1013 hPa | 0 mm | - | 206 W/m² | - |
| 1788308737 | 22.78° C | 53% | 1012.9 hPa | 0 mm | - | 220 W/m² | - |
| 1788308432 | 22.78° C | 52% | 1013 hPa | 0 mm | - | 233 W/m² | - |
| 1788308126 | 22.78° C | 52% | 1012.9 hPa | 0 mm | - | 246 W/m² | - |
| 1788307821 | 23.33° C | 52% | 1012.7 hPa | 0 mm | - | 260 W/m² | - |
| 1788307511 | 23.33° C | 51% | 1012.9 hPa | 0 mm | - | 276 W/m² | - |
* Rain latest hour (hover to see other rain measurements)
** Current wind speed in m/s (hover to see current wind gust speed)